Location: Croisilles
(50.1998°N, 2.8793°E)
Time: 12:43:09
(UTC+00:00)

SL-08 RB Rocket - Pass Details

Date: 21 January 2021
Orbit: 647 x 684 km, 97.8° (Epoch: 27 February)

Event Time Altitude Azimuth Distance (km) Brightness Sun altitude
Exits shadow 18:36:36 52° 75° (ENE) 819 3.7 -20.8°
Maximum altitude 18:36:42 52° 70° (ENE) 818 3.7 -20.8°
Drops below altitude 10° 18:41:05 10° 355° (N) 2,071 6.2 -21.5°
Sets 18:43:20 0° 351° (N) 2,983 7.1 -21.9°
